25.03.2024;11:00;14,14
25.03.2024;10:45;14,16
25.03.2024;10:30;14,16
25.03.2024;10:15;14,16
25.03.2024;10:00;14,16
25.03.2024;09:45;14,17
25.03.2024;09:30;14,17
25.03.2024;09:15;14,18
25.03.2024;09:00;14,18
25.03.2024;08:45;14,20
25.03.2024;08:30;13,92
25.03.2024;08:15;13,56
25.03.2024;08:00;13,43
25.03.2024;07:45;13,32
25.03.2024;07:30;13,24
25.03.2024;07:15;13,18
25.03.2024;07:00;13,32
25.03.2024;06:45;13,33
25.03.2024;06:30;13,33
25.03.2024;06:15;13,34
25.03.2024;06:00;13,35
25.03.2024;05:45;13,36
25.03.2024;05:30;13,36
25.03.2024;05:15;13,37
25.03.2024;05:00;13,38
25.03.2024;04:45;13,39
25.03.2024;04:30;13,40
25.03.2024;04:15;13,41
25.03.2024;04:00;13,41
25.03.2024;03:45;13,42
25.03.2024;03:30;13,43
25.03.2024;03:15;13,44
25.03.2024;03:00;13,45
25.03.2024;02:45;13,46
25.03.2024;02:30;13,45
25.03.2024;02:15;13,47
25.03.2024;02:00;13,48
25.03.2024;01:45;13,49
25.03.2024;01:30;13,49
25.03.2024;01:15;13,50
25.03.2024;01:00;13,51
25.03.2024;00:45;13,52
25.03.2024;00:30;13,52
25.03.2024;00:15;13,54
25.03.2024;00:00;13,54
24.03.2024;23:45;13,55
24.03.2024;23:30;13,55
24.03.2024;23:15;13,53
24.03.2024;23:00;13,68
24.03.2024;22:45;13,70
24.03.2024;22:30;13,70
24.03.2024;22:15;13,71
24.03.2024;22:00;13,72
24.03.2024;21:45;13,73
24.03.2024;21:30;13,74
24.03.2024;21:15;13,74
24.03.2024;21:00;13,75
24.03.2024;20:45;13,77
24.03.2024;20:30;13,77
24.03.2024;20:15;13,79
24.03.2024;20:00;13,80
24.03.2024;19:45;13,80
24.03.2024;19:30;13,82
24.03.2024;19:15;13,80
24.03.2024;19:00;13,95
24.03.2024;18:45;13,98
24.03.2024;18:30;13,99
24.03.2024;18:15;14,02
24.03.2024;18:00;14,05
24.03.2024;17:45;14,09
24.03.2024;17:30;14,12
24.03.2024;17:15;14,12
24.03.2024;17:00;14,12
24.03.2024;16:45;14,11
24.03.2024;16:30;14,11
24.03.2024;16:15;14,11
24.03.2024;16:00;14,10
24.03.2024;15:45;14,10
24.03.2024;15:30;14,09
24.03.2024;15:15;14,05
24.03.2024;15:00;14,10
24.03.2024;14:45;14,09
24.03.2024;14:30;14,09
24.03.2024;14:15;14,09
24.03.2024;14:00;14,09
24.03.2024;13:45;14,09
24.03.2024;13:30;14,08
24.03.2024;13:15;14,09
24.03.2024;13:00;14,09
24.03.2024;12:45;14,10
24.03.2024;12:30;14,09
24.03.2024;12:15;14,09
24.03.2024;12:00;14,09
24.03.2024;11:45;14,10
24.03.2024;11:30;14,10
24.03.2024;11:15;14,07
24.03.2024;11:00;14,10
24.03.2024;10:45;14,12
24.03.2024;10:30;14,11
24.03.2024;10:15;14,11
24.03.2024;10:00;14,12
24.03.2024;09:45;14,12
24.03.2024;09:30;14,12
24.03.2024;09:15;14,14
24.03.2024;09:00;13,88
24.03.2024;08:45;13,52
24.03.2024;08:30;13,39
24.03.2024;08:15;13,29
24.03.2024;08:00;13,21
24.03.2024;07:45;13,16
24.03.2024;07:30;13,15
24.03.2024;07:15;13,12
24.03.2024;07:00;13,26
24.03.2024;06:45;13,28
24.03.2024;06:30;13,29
24.03.2024;06:15;13,29
24.03.2024;06:00;13,30
24.03.2024;05:45;13,30
24.03.2024;05:30;13,32
24.03.2024;05:15;13,33
24.03.2024;05:00;13,33
24.03.2024;04:45;13,34
24.03.2024;04:30;13,34
24.03.2024;04:15;13,35
24.03.2024;04:00;13,36
24.03.2024;03:45;13,38
24.03.2024;03:30;13,38
24.03.2024;03:15;13,39
24.03.2024;03:00;13,39
24.03.2024;02:45;13,40
24.03.2024;02:30;13,41
24.03.2024;02:15;13,41
24.03.2024;02:00;13,42
24.03.2024;01:45;13,43
24.03.2024;01:30;13,45
24.03.2024;01:15;13,44
24.03.2024;01:00;13,45
24.03.2024;00:45;13,46
24.03.2024;00:30;13,47
24.03.2024;00:15;13,48
24.03.2024;00:00;13,49
23.03.2024;23:45;13,49
23.03.2024;23:30;13,49
23.03.2024;23:15;13,48
23.03.2024;23:00;13,63
23.03.2024;22:45;13,64
23.03.2024;22:30;13,65
23.03.2024;22:15;13,66
23.03.2024;22:00;13,66
23.03.2024;21:45;13,68
23.03.2024;21:30;13,68
23.03.2024;21:15;13,70
23.03.2024;21:00;13,70
23.03.2024;20:45;13,72
23.03.2024;20:30;13,72
23.03.2024;20:15;13,74
23.03.2024;20:00;13,75
23.03.2024;19:45;13,76
23.03.2024;19:30;13,76
23.03.2024;19:15;13,75
23.03.2024;19:00;13,90
23.03.2024;18:45;13,91
23.03.2024;18:30;13,94
23.03.2024;18:15;13,97
23.03.2024;18:00;14,01
23.03.2024;17:45;14,02
23.03.2024;17:30;14,02
23.03.2024;17:15;14,01
23.03.2024;17:00;14,01
23.03.2024;16:45;14,01
23.03.2024;16:30;14,00
23.03.2024;16:15;14,00
23.03.2024;16:00;14,00
23.03.2024;15:45;14,00
23.03.2024;15:30;14,00
23.03.2024;15:15;13,96
23.03.2024;15:00;14,00
23.03.2024;14:45;14,00
23.03.2024;14:30;14,00
23.03.2024;14:15;13,99
23.03.2024;14:00;13,99
23.03.2024;13:45;13,99
23.03.2024;13:30;13,99
23.03.2024;13:15;14,00
23.03.2024;13:00;14,00
23.03.2024;12:45;14,01
23.03.2024;12:30;14,00
23.03.2024;12:15;14,01
23.03.2024;12:00;14,00
23.03.2024;11:45;13,99
23.03.2024;11:30;13,99
23.03.2024;11:15;13,96
23.03.2024;11:00;14,01
23.03.2024;10:45;14,02
23.03.2024;10:30;14,02
23.03.2024;10:15;14,02
23.03.2024;10:00;14,01
23.03.2024;09:45;14,02
23.03.2024;09:30;14,01
23.03.2024;09:15;14,01
23.03.2024;09:00;14,03
23.03.2024;08:45;14,05
23.03.2024;08:30;14,05
23.03.2024;08:15;13,45
23.03.2024;08:00;13,30
23.03.2024;07:45;13,20
23.03.2024;07:30;13,16
23.03.2024;07:15;13,13
23.03.2024;07:00;13,26
23.03.2024;06:45;13,27
23.03.2024;06:30;13,28
23.03.2024;06:15;13,29
23.03.2024;06:00;13,30
23.03.2024;05:45;13,30
23.03.2024;05:30;13,31
23.03.2024;05:15;13,32
23.03.2024;05:00;13,32
23.03.2024;04:45;13,34
23.03.2024;04:30;13,34
23.03.2024;04:15;13,35
23.03.2024;04:00;13,36
23.03.2024;03:45;13,37
23.03.2024;03:30;13,37
23.03.2024;03:15;13,39
23.03.2024;03:00;13,39
23.03.2024;02:45;13,39
23.03.2024;02:30;13,40
23.03.2024;02:15;13,42
23.03.2024;02:00;13,41
23.03.2024;01:45;13,42
23.03.2024;01:30;13,43
23.03.2024;01:15;13,45
23.03.2024;01:00;13,44
23.03.2024;00:45;13,46
23.03.2024;00:30;13,46
23.03.2024;00:15;13,48
23.03.2024;00:00;13,48
22.03.2024;23:45;13,49
22.03.2024;23:30;13,49
22.03.2024;23:15;13,47
22.03.2024;23:00;13,63
22.03.2024;22:45;13,64
22.03.2024;22:30;13,64
22.03.2024;22:15;13,66
22.03.2024;22:00;13,66
22.03.2024;21:45;13,67
22.03.2024;21:30;13,68
22.03.2024;21:15;13,69
22.03.2024;21:00;13,69
22.03.2024;20:45;13,72
22.03.2024;20:30;13,72
22.03.2024;20:15;13,73
22.03.2024;20:00;13,73
22.03.2024;19:45;13,75
22.03.2024;19:30;13,76
22.03.2024;19:15;13,75
22.03.2024;19:00;13,90
22.03.2024;18:45;13,91
22.03.2024;18:30;13,93
22.03.2024;18:15;13,95
22.03.2024;18:00;13,97
22.03.2024;17:45;14,00
22.03.2024;17:30;14,03
22.03.2024;17:15;14,06
22.03.2024;17:00;14,06
22.03.2024;16:45;14,05
22.03.2024;16:30;14,05
22.03.2024;16:15;14,05
22.03.2024;16:00;14,05
22.03.2024;15:45;14,05
22.03.2024;15:30;14,04
22.03.2024;15:15;14,01
22.03.2024;15:00;14,05
22.03.2024;14:45;14,04
22.03.2024;14:30;14,05
22.03.2024;14:15;14,05
22.03.2024;14:00;14,06
22.03.2024;13:45;14,06
22.03.2024;13:30;14,06
22.03.2024;13:15;14,06
22.03.2024;13:00;14,07
22.03.2024;12:45;14,07
22.03.2024;12:30;14,07
22.03.2024;12:15;14,06
22.03.2024;12:00;14,06
22.03.2024;11:45;14,06
22.03.2024;11:30;14,06
22.03.2024;11:15;14,04
22.03.2024;11:00;14,06
22.03.2024;10:45;14,06
22.03.2024;10:30;14,06
22.03.2024;10:15;14,07
22.03.2024;10:00;13,85
22.03.2024;09:45;13,77
22.03.2024;09:30;13,71
22.03.2024;09:15;13,57
22.03.2024;09:00;13,43
22.03.2024;08:45;13,33
22.03.2024;08:30;13,25
22.03.2024;08:15;13,20
22.03.2024;08:00;13,15
22.03.2024;07:45;13,14
22.03.2024;07:30;13,11
22.03.2024;07:15;13,10
22.03.2024;07:00;13,24
22.03.2024;06:45;13,26
22.03.2024;06:30;13,26
22.03.2024;06:15;13,28
22.03.2024;06:00;13,28
22.03.2024;05:45;13,29
22.03.2024;05:30;13,29
22.03.2024;05:15;13,30
22.03.2024;05:00;13,31
22.03.2024;04:45;13,33
22.03.2024;04:30;13,32
22.03.2024;04:15;13,33
22.03.2024;04:00;13,34
22.03.2024;03:45;13,35
22.03.2024;03:30;13,35
22.03.2024;03:15;13,36
22.03.2024;03:00;13,38
22.03.2024;02:45;13,37
22.03.2024;02:30;13,38
22.03.2024;02:15;13,40
22.03.2024;02:00;13,40
22.03.2024;01:45;13,41
22.03.2024;01:30;13,42
22.03.2024;01:15;13,43
22.03.2024;01:00;13,44
22.03.2024;00:45;13,44
22.03.2024;00:30;13,44
22.03.2024;00:15;13,46
22.03.2024;00:00;13,47
21.03.2024;23:45;13,47
21.03.2024;23:30;13,47
21.03.2024;23:15;13,46
21.03.2024;23:00;13,61
21.03.2024;22:45;13,62
21.03.2024;22:30;13,62
21.03.2024;22:15;13,64
21.03.2024;22:00;13,65
21.03.2024;21:45;13,65
21.03.2024;21:30;13,66
21.03.2024;21:15;13,68
21.03.2024;21:00;13,68
21.03.2024;20:45;13,70
21.03.2024;20:30;13,70
21.03.2024;20:15;13,72
21.03.2024;20:00;13,72
21.03.2024;19:45;13,72
21.03.2024;19:30;13,74
21.03.2024;19:15;13,73
21.03.2024;19:00;13,88
21.03.2024;18:45;13,90
21.03.2024;18:30;13,92
21.03.2024;18:15;13,95
21.03.2024;18:00;13,98
21.03.2024;17:45;13,97
21.03.2024;17:30;13,96
21.03.2024;17:15;13,95
21.03.2024;17:00;13,94
21.03.2024;16:45;13,93
21.03.2024;16:30;13,93
21.03.2024;16:15;13,92
21.03.2024;16:00;13,92
21.03.2024;15:45;13,92
21.03.2024;15:30;13,91
21.03.2024;15:15;13,88
21.03.2024;15:00;13,93
21.03.2024;14:45;13,95
21.03.2024;14:30;13,94
21.03.2024;14:15;13,95
21.03.2024;14:00;13,96
21.03.2024;13:45;13,96
21.03.2024;13:30;13,97
21.03.2024;13:15;13,97
21.03.2024;13:00;13,97
21.03.2024;12:45;13,98
21.03.2024;12:30;13,98
21.03.2024;12:15;13,99
21.03.2024;12:00;14,00
21.03.2024;11:45;14,00
21.03.2024;11:30;14,01
21.03.2024;11:15;13,97
21.03.2024;11:00;14,03
21.03.2024;10:45;14,03
21.03.2024;10:30;14,03
21.03.2024;10:15;14,03
21.03.2024;10:00;14,03
21.03.2024;09:45;14,04
21.03.2024;09:30;14,03
21.03.2024;09:15;14,05
21.03.2024;09:00;14,06
21.03.2024;08:45;13,64
21.03.2024;08:30;13,41
21.03.2024;08:15;13,32
21.03.2024;08:00;13,26
21.03.2024;07:45;13,20
21.03.2024;07:30;13,16
21.03.2024;07:15;13,12
21.03.2024;07:00;13,28
21.03.2024;06:45;13,29
21.03.2024;06:30;13,30
21.03.2024;06:15;13,30
21.03.2024;06:00;13,30
21.03.2024;05:45;13,32
21.03.2024;05:30;13,33
21.03.2024;05:15;13,34
21.03.2024;05:00;13,34
21.03.2024;04:45;13,35
21.03.2024;04:30;13,36
21.03.2024;04:15;13,36
21.03.2024;04:00;13,37
21.03.2024;03:45;13,38
21.03.2024;03:30;13,39
21.03.2024;03:15;13,40
21.03.2024;03:00;13,40
21.03.2024;02:45;13,42
21.03.2024;02:30;13,41
21.03.2024;02:15;13,42
21.03.2024;02:00;13,44
21.03.2024;01:45;13,45
21.03.2024;01:30;13,45
21.03.2024;01:15;13,46
21.03.2024;01:00;13,46
21.03.2024;00:45;13,48
21.03.2024;00:30;13,48
21.03.2024;00:15;13,49
21.03.2024;00:00;13,50
20.03.2024;23:45;13,51
20.03.2024;23:30;13,50
20.03.2024;23:15;13,48
20.03.2024;23:00;13,63
20.03.2024;22:45;13,65
20.03.2024;22:30;13,65
20.03.2024;22:15;13,68
20.03.2024;22:00;13,67
20.03.2024;21:45;13,69
20.03.2024;21:30;13,69
20.03.2024;21:15;13,71
20.03.2024;21:00;13,71
20.03.2024;20:45;13,73
20.03.2024;20:30;13,73
20.03.2024;20:15;13,75
20.03.2024;20:00;13,75
20.03.2024;19:45;13,76
20.03.2024;19:30;13,77
20.03.2024;19:15;13,76
20.03.2024;19:00;13,91
20.03.2024;18:45;13,93
20.03.2024;18:30;13,95
20.03.2024;18:15;13,98
20.03.2024;18:00;14,01
20.03.2024;17:45;14,05
20.03.2024;17:30;14,05
20.03.2024;17:15;14,04
20.03.2024;17:00;14,03
20.03.2024;16:45;14,04
20.03.2024;16:30;14,03
20.03.2024;16:15;14,04
20.03.2024;16:00;14,02
20.03.2024;15:45;14,02
20.03.2024;15:30;14,03
20.03.2024;15:15;13,98
20.03.2024;15:00;14,03
20.03.2024;14:45;14,04
20.03.2024;14:30;14,04
20.03.2024;14:15;14,05
20.03.2024;14:00;14,04
20.03.2024;13:45;14,06
20.03.2024;13:30;14,06
20.03.2024;13:15;14,07
20.03.2024;13:00;14,07
20.03.2024;12:45;14,07
20.03.2024;12:30;14,08
20.03.2024;12:15;14,08
20.03.2024;12:00;14,09
20.03.2024;11:45;14,09
20.03.2024;11:30;14,09
20.03.2024;11:15;14,06
20.03.2024;11:00;14,10
20.03.2024;10:45;14,10
20.03.2024;10:30;14,11
20.03.2024;10:15;14,11
20.03.2024;10:00;14,11
20.03.2024;09:45;14,12
20.03.2024;09:30;14,12
20.03.2024;09:15;14,13
20.03.2024;09:00;14,13
20.03.2024;08:45;13,68
20.03.2024;08:30;13,52
20.03.2024;08:15;13,40
20.03.2024;08:00;13,29
20.03.2024;07:45;13,23
20.03.2024;07:30;13,21
20.03.2024;07:15;13,16
20.03.2024;07:00;13,32
20.03.2024;06:45;13,33
20.03.2024;06:30;13,34
20.03.2024;06:15;13,34
20.03.2024;06:00;13,35
20.03.2024;05:45;13,36
20.03.2024;05:30;13,36
20.03.2024;05:15;13,38
20.03.2024;05:00;13,38
20.03.2024;04:45;13,39
20.03.2024;04:30;13,39
20.03.2024;04:15;13,40
20.03.2024;04:00;13,41
20.03.2024;03:45;13,43
20.03.2024;03:30;13,43
20.03.2024;03:15;13,44
20.03.2024;03:00;13,45
20.03.2024;02:45;13,45
20.03.2024;02:30;13,45
20.03.2024;02:15;13,47
20.03.2024;02:00;13,47
20.03.2024;01:45;13,49
20.03.2024;01:30;13,50
20.03.2024;01:15;13,51
20.03.2024;01:00;13,50
20.03.2024;00:45;13,52
20.03.2024;00:30;13,52
20.03.2024;00:15;13,53
20.03.2024;00:00;13,54
19.03.2024;23:45;13,55
19.03.2024;23:30;13,55
19.03.2024;23:15;13,53
19.03.2024;23:00;13,68
19.03.2024;22:45;13,70
19.03.2024;22:30;13,71
19.03.2024;22:15;13,71
19.03.2024;22:00;13,72
19.03.2024;21:45;13,73
19.03.2024;21:30;13,74
19.03.2024;21:15;13,75
19.03.2024;21:00;13,77
19.03.2024;20:45;13,78
19.03.2024;20:30;13,79
19.03.2024;20:15;13,79
19.03.2024;20:00;13,80
19.03.2024;19:45;13,82
19.03.2024;19:30;13,82
19.03.2024;19:15;13,82
19.03.2024;19:00;13,97
19.03.2024;18:45;13,99
19.03.2024;18:30;14,03
19.03.2024;18:15;14,09
19.03.2024;18:00;14,08
19.03.2024;17:45;14,08
19.03.2024;17:30;14,05
19.03.2024;17:15;14,04
19.03.2024;17:00;14,02
19.03.2024;16:45;14,01
19.03.2024;16:30;14,00
19.03.2024;16:15;13,99
19.03.2024;16:00;13,99
19.03.2024;15:45;13,98
19.03.2024;15:30;13,97
19.03.2024;15:15;13,94
19.03.2024;15:00;14,01
19.03.2024;14:45;14,01
19.03.2024;14:30;14,03
19.03.2024;14:15;14,05
19.03.2024;14:00;14,07
19.03.2024;13:45;14,10
19.03.2024;13:30;14,11
19.03.2024;13:15;14,13
19.03.2024;13:00;14,13
19.03.2024;12:45;14,15
19.03.2024;12:30;14,15
19.03.2024;12:15;14,17
19.03.2024;12:00;14,17
19.03.2024;11:45;14,18
19.03.2024;11:30;14,19
19.03.2024;11:15;14,17
19.03.2024;11:00;14,23
19.03.2024;10:45;14,24
19.03.2024;10:30;14,27
19.03.2024;10:15;14,28
19.03.2024;10:00;14,30
19.03.2024;09:45;14,32
19.03.2024;09:30;14,34
19.03.2024;09:15;14,36
19.03.2024;09:00;14,38
19.03.2024;08:45;14,40
19.03.2024;08:30;14,26
19.03.2024;08:15;13,77
19.03.2024;08:00;13,62
19.03.2024;07:45;13,49
19.03.2024;07:30;13,33
19.03.2024;07:15;13,18
19.03.2024;07:00;13,32
19.03.2024;06:45;13,30
19.03.2024;06:30;13,29
19.03.2024;06:15;13,31
19.03.2024;06:00;13,31
19.03.2024;05:45;13,31
19.03.2024;05:30;13,33
19.03.2024;05:15;13,34
19.03.2024;05:00;13,33
19.03.2024;04:45;13,35
19.03.2024;04:30;13,35
19.03.2024;04:15;13,37
19.03.2024;04:00;13,37
19.03.2024;03:45;13,39
19.03.2024;03:30;13,39
19.03.2024;03:15;13,41
19.03.2024;03:00;13,40
19.03.2024;02:45;13,42
19.03.2024;02:30;13,42
19.03.2024;02:15;13,44
19.03.2024;02:00;13,44
19.03.2024;01:45;13,45
19.03.2024;01:30;13,45
19.03.2024;01:15;13,47
19.03.2024;01:00;13,47
19.03.2024;00:45;13,48
19.03.2024;00:30;13,49
19.03.2024;00:15;13,50
19.03.2024;00:00;13,50
18.03.2024;23:45;13,51
18.03.2024;23:30;13,51
18.03.2024;23:15;13,49
18.03.2024;23:00;13,65
18.03.2024;22:45;13,66
18.03.2024;22:30;13,66
18.03.2024;22:15;13,67
18.03.2024;22:00;13,68
18.03.2024;21:45;13,70
18.03.2024;21:30;13,71
18.03.2024;21:15;13,71
18.03.2024;21:00;13,72
18.03.2024;20:45;13,74
18.03.2024;20:30;13,73
18.03.2024;20:15;13,75
18.03.2024;20:00;13,76
18.03.2024;19:45;13,76
18.03.2024;19:30;13,77
18.03.2024;19:15;13,76
18.03.2024;19:00;13,91
18.03.2024;18:45;13,93
18.03.2024;18:30;13,95
18.03.2024;18:15;13,99
18.03.2024;18:00;14,01
18.03.2024;17:45;14,02
18.03.2024;17:30;14,01
18.03.2024;17:15;13,99
18.03.2024;17:00;13,97
18.03.2024;16:45;13,95
18.03.2024;16:30;13,93
18.03.2024;16:15;13,93
18.03.2024;16:00;13,92
18.03.2024;15:45;13,90
18.03.2024;15:30;13,89
18.03.2024;15:15;13,84
18.03.2024;15:00;13,88
18.03.2024;14:45;13,89
18.03.2024;14:30;13,88
18.03.2024;14:15;13,89
18.03.2024;14:00;13,90
18.03.2024;13:45;13,92
18.03.2024;13:30;13,94
18.03.2024;13:15;13,96
18.03.2024;13:00;13,97
18.03.2024;12:45;13,99
18.03.2024;12:30;14,00
18.03.2024;12:15;14,02
18.03.2024;12:00;14,04
18.03.2024;11:45;14,06
18.03.2024;11:30;14,07
18.03.2024;11:15;14,03
18.03.2024;11:00;14,11
18.03.2024;10:45;14,12
18.03.2024;10:30;14,14
18.03.2024;10:15;14,17
18.03.2024;10:00;14,20
18.03.2024;09:45;14,26
18.03.2024;09:30;14,31
18.03.2024;09:15;14,36
18.03.2024;09:00;14,41
18.03.2024;08:45;14,45
18.03.2024;08:30;14,47
18.03.2024;08:15;14,49
18.03.2024;08:00;14,51
18.03.2024;07:45;14,31
18.03.2024;07:30;13,49
18.03.2024;07:15;13,26
18.03.2024;07:00;13,38
18.03.2024;06:45;13,33
18.03.2024;06:30;13,34
18.03.2024;06:15;13,35
18.03.2024;06:00;13,35
18.03.2024;05:45;13,36
18.03.2024;05:30;13,37
18.03.2024;05:15;13,38
18.03.2024;05:00;13,38
18.03.2024;04:45;13,40
18.03.2024;04:30;13,40
18.03.2024;04:15;13,41
18.03.2024;04:00;13,42
18.03.2024;03:45;13,43
18.03.2024;03:30;13,43
18.03.2024;03:15;13,45
18.03.2024;03:00;13,45
18.03.2024;02:45;13,47
18.03.2024;02:30;13,47
18.03.2024;02:15;13,48
18.03.2024;02:00;13,49
18.03.2024;01:45;13,50
18.03.2024;01:30;13,50
18.03.2024;01:15;13,52
18.03.2024;01:00;13,52
18.03.2024;00:45;13,53
18.03.2024;00:30;13,54
18.03.2024;00:15;13,55
18.03.2024;00:00;13,55
17.03.2024;23:45;13,56
17.03.2024;23:30;13,56
17.03.2024;23:15;13,53
17.03.2024;23:00;13,70
17.03.2024;22:45;13,71
17.03.2024;22:30;13,71
17.03.2024;22:15;13,72
17.03.2024;22:00;13,73
17.03.2024;21:45;13,74
17.03.2024;21:30;13,74
17.03.2024;21:15;13,76
17.03.2024;21:00;13,77
17.03.2024;20:45;13,78
17.03.2024;20:30;13,79
17.03.2024;20:15;13,80
17.03.2024;20:00;13,81
17.03.2024;19:45;13,82
17.03.2024;19:30;13,83
17.03.2024;19:15;13,81
17.03.2024;19:00;13,97
17.03.2024;18:45;13,99
17.03.2024;18:30;14,01
17.03.2024;18:15;14,05
17.03.2024;18:00;14,09
17.03.2024;17:45;14,13
17.03.2024;17:30;14,11
17.03.2024;17:15;14,10
17.03.2024;17:00;14,08
17.03.2024;16:45;14,07
17.03.2024;16:30;14,05
17.03.2024;16:15;14,05
17.03.2024;16:00;14,03
17.03.2024;15:45;14,01
17.03.2024;15:30;14,01
17.03.2024;15:15;13,95
17.03.2024;15:00;14,01
17.03.2024;14:45;14,00
17.03.2024;14:30;14,01
17.03.2024;14:15;14,03
17.03.2024;14:00;14,04
17.03.2024;13:45;14,05
17.03.2024;13:30;14,08
17.03.2024;13:15;14,11
17.03.2024;13:00;14,14
17.03.2024;12:45;14,18
17.03.2024;12:30;14,21
17.03.2024;12:15;14,23
17.03.2024;12:00;14,24
17.03.2024;11:45;14,24
17.03.2024;11:30;14,24
17.03.2024;11:15;14,19
17.03.2024;11:00;14,25
17.03.2024;10:45;14,24
17.03.2024;10:30;14,24
17.03.2024;10:15;14,24
17.03.2024;10:00;14,24
17.03.2024;09:45;14,24
17.03.2024;09:30;14,24
17.03.2024;09:15;14,24
17.03.2024;09:00;14,23
17.03.2024;08:45;14,23
17.03.2024;08:30;13,92
17.03.2024;08:15;13,49
17.03.2024;08:00;13,34
17.03.2024;07:45;13,25
17.03.2024;07:30;13,17
17.03.2024;07:15;13,10
17.03.2024;07:00;13,25
17.03.2024;06:45;13,26
17.03.2024;06:30;13,26
17.03.2024;06:15;13,28
17.03.2024;06:00;13,28
17.03.2024;05:45;13,29
17.03.2024;05:30;13,30
17.03.2024;05:15;13,31
17.03.2024;05:00;13,31
17.03.2024;04:45;13,33
17.03.2024;04:30;13,33
17.03.2024;04:15;13,34
17.03.2024;04:00;13,34
17.03.2024;03:45;13,35
17.03.2024;03:30;13,36
17.03.2024;03:15;13,37
17.03.2024;03:00;13,37
17.03.2024;02:45;13,38
17.03.2024;02:30;13,40
17.03.2024;02:15;13,40
17.03.2024;02:00;13,41
17.03.2024;01:45;13,42
17.03.2024;01:30;13,42
17.03.2024;01:15;13,44
17.03.2024;01:00;13,44
17.03.2024;00:45;13,45
17.03.2024;00:30;13,45
17.03.2024;00:15;13,47
17.03.2024;00:00;13,46
16.03.2024;23:45;13,48
16.03.2024;23:30;13,48
16.03.2024;23:15;13,45
16.03.2024;23:00;13,62
16.03.2024;22:45;13,63
16.03.2024;22:30;13,63
16.03.2024;22:15;13,64
16.03.2024;22:00;13,66
16.03.2024;21:45;13,66
16.03.2024;21:30;13,67
16.03.2024;21:15;13,68
16.03.2024;21:00;13,68
16.03.2024;20:45;13,70
16.03.2024;20:30;13,70
16.03.2024;20:15;13,72
16.03.2024;20:00;13,72
16.03.2024;19:45;13,73
16.03.2024;19:30;13,75
16.03.2024;19:15;13,73
16.03.2024;19:00;13,88
16.03.2024;18:45;13,90
16.03.2024;18:30;13,90
16.03.2024;18:15;13,93
16.03.2024;18:00;13,95
16.03.2024;17:45;13,97
16.03.2024;17:30;13,99
16.03.2024;17:15;14,03
16.03.2024;17:00;14,07
16.03.2024;16:45;14,07
16.03.2024;16:30;14,06
16.03.2024;16:15;14,06
16.03.2024;16:00;14,05
16.03.2024;15:45;14,05
16.03.2024;15:30;14,03
16.03.2024;15:15;14,00
16.03.2024;15:00;14,03
16.03.2024;14:45;14,04
16.03.2024;14:30;14,04
16.03.2024;14:15;14,04
16.03.2024;14:00;14,04
16.03.2024;13:45;14,04
16.03.2024;13:30;14,04
16.03.2024;13:15;14,04
16.03.2024;13:00;14,04
16.03.2024;12:45;14,04
16.03.2024;12:30;14,04
16.03.2024;12:15;14,04
16.03.2024;12:00;14,04
16.03.2024;11:45;14,03
16.03.2024;11:30;14,03
16.03.2024;11:15;14,00
16.03.2024;11:00;14,05
16.03.2024;10:45;14,06
16.03.2024;10:30;14,05
16.03.2024;10:15;14,05
16.03.2024;10:00;14,05
16.03.2024;09:45;14,05
16.03.2024;09:30;14,05
16.03.2024;09:15;14,06
16.03.2024;09:00;14,06
16.03.2024;08:45;14,04
16.03.2024;08:30;14,03
16.03.2024;08:15;13,38
16.03.2024;08:00;13,20
16.03.2024;07:45;13,08
16.03.2024;07:30;13,04
16.03.2024;07:15;13,01
16.03.2024;07:00;13,16
16.03.2024;06:45;13,16
16.03.2024;06:30;13,17
16.03.2024;06:15;13,18
16.03.2024;06:00;13,19
16.03.2024;05:45;13,19
16.03.2024;05:30;13,20
16.03.2024;05:15;13,20
16.03.2024;05:00;13,22
16.03.2024;04:45;13,22
16.03.2024;04:30;13,22
16.03.2024;04:15;13,24
16.03.2024;04:00;13,25
16.03.2024;03:45;13,26
16.03.2024;03:30;13,25
16.03.2024;03:15;13,27
16.03.2024;03:00;13,27
16.03.2024;02:45;13,29
16.03.2024;02:30;13,29
16.03.2024;02:15;13,30
16.03.2024;02:00;13,30
16.03.2024;01:45;13,31
16.03.2024;01:30;13,32
16.03.2024;01:15;13,33
16.03.2024;01:00;13,34
16.03.2024;00:45;13,34
16.03.2024;00:30;13,35
16.03.2024;00:15;13,36
16.03.2024;00:00;13,36
15.03.2024;23:45;13,37
15.03.2024;23:30;13,37
15.03.2024;23:15;13,36
15.03.2024;23:00;13,50
15.03.2024;22:45;13,51
15.03.2024;22:30;13,53
15.03.2024;22:15;13,54
15.03.2024;22:00;13,54
15.03.2024;21:45;13,56
15.03.2024;21:30;13,55
15.03.2024;21:15;13,57
15.03.2024;21:00;13,58
15.03.2024;20:45;13,59
15.03.2024;20:30;13,60
15.03.2024;20:15;13,61
15.03.2024;20:00;13,62
15.03.2024;19:45;13,63
15.03.2024;19:30;13,63
15.03.2024;19:15;13,62
15.03.2024;19:00;13,76
15.03.2024;18:45;13,78
15.03.2024;18:30;13,79
15.03.2024;18:15;13,81
15.03.2024;18:00;13,83
15.03.2024;17:45;13,86
15.03.2024;17:30;13,89
15.03.2024;17:15;13,89
15.03.2024;17:00;13,87
15.03.2024;16:45;13,85
15.03.2024;16:30;13,83
15.03.2024;16:15;13,81
15.03.2024;16:00;13,80
15.03.2024;15:45;13,78
15.03.2024;15:30;13,76
15.03.2024;15:15;13,72
15.03.2024;15:00;13,74
15.03.2024;14:45;13,73
15.03.2024;14:30;13,73
15.03.2024;14:15;13,73
15.03.2024;14:00;13,73
15.03.2024;13:45;13,74
15.03.2024;13:30;13,75
15.03.2024;13:15;13,75
15.03.2024;13:00;13,76
15.03.2024;12:45;13,78
15.03.2024;12:30;13,79
15.03.2024;12:15;13,80
15.03.2024;12:00;13,82
15.03.2024;11:45;13,84
15.03.2024;11:30;13,84
15.03.2024;11:15;13,82
15.03.2024;11:00;13,91
15.03.2024;10:45;13,93
15.03.2024;10:30;13,94
15.03.2024;10:15;13,96
15.03.2024;10:00;13,98
15.03.2024;09:45;14,02
15.03.2024;09:30;14,04
15.03.2024;09:15;14,06
15.03.2024;09:00;14,08
15.03.2024;08:45;14,10
15.03.2024;08:30;14,10
15.03.2024;08:15;14,12
15.03.2024;08:00;13,22
15.03.2024;07:45;13,03
15.03.2024;07:30;12,95
15.03.2024;07:15;12,88
15.03.2024;07:00;12,99
15.03.2024;06:45;12,99
15.03.2024;06:30;13,00
15.03.2024;06:15;13,01
15.03.2024;06:00;13,01
15.03.2024;05:45;13,02
15.03.2024;05:30;13,03
15.03.2024;05:15;13,04
15.03.2024;05:00;13,04
15.03.2024;04:45;13,05
15.03.2024;04:30;13,05
15.03.2024;04:15;13,06
15.03.2024;04:00;13,07
15.03.2024;03:45;13,07
15.03.2024;03:30;13,07
15.03.2024;03:15;13,09
15.03.2024;03:00;13,09
15.03.2024;02:45;13,10
15.03.2024;02:30;13,10
15.03.2024;02:15;13,11
15.03.2024;02:00;13,12
15.03.2024;01:45;13,13
15.03.2024;01:30;13,13
15.03.2024;01:15;13,14